This is the latest recevied weather packets stored in our database for station/object ac2ev. If no packets are shown the sender has not sent any weather packets the latest 10 day(s).
| Time | Temp. | Humidity | Pressure | Rain* | Wind** | Luminosity | Snow |
|---|---|---|---|---|---|---|---|
| 1777849890 | 12.22° C | 60% | 1008.6 hPa | 0 mm | - | - | - |
| 1777849590 | 12.22° C | 57% | 1008.5 hPa | 0 mm | - | - | - |
| 1777849290 | 12.22° C | 56% | 1008.4 hPa | 0 mm | - | - | - |
| 1777848991 | 12.78° C | 54% | 1008.3 hPa | 0 mm | - | - | - |
| 1777848690 | 12.78° C | 53% | 1008.3 hPa | 0 mm | - | - | - |
| 1777848390 | 12.78° C | 53% | 1008.2 hPa | 0 mm | - | - | - |
| 1777848090 | 12.78° C | 52% | 1008.2 hPa | 0 mm | - | - | - |
| 1777847790 | 12.78° C | 51% | 1008 hPa | 0 mm | - | - | - |
| 1777847490 | 12.78° C | 51% | 1008.1 hPa | 0 mm | - | - | - |
| 1777847190 | 12.78° C | 50% | 1008.1 hPa | 0 mm | - | - | - |
| 1777846891 | 12.78° C | 49% | 1008 hPa | 0 mm | - | - | - |
| 1777846591 | 13.33° C | 48% | 1007.9 hPa | 0 mm | - | - | - |
| 1777846290 | 13.33° C | 48% | 1008.1 hPa | 0 mm | - | - | - |
| 1777845991 | 13.33° C | 47% | 1008 hPa | 0 mm | - | - | - |
| 1777845692 | 13.33° C | 47% | 1008 hPa | 0 mm | - | - | - |
| 1777845391 | 13.33° C | 46% | 1007.9 hPa | 0 mm | - | - | - |
| 1777845090 | 13.33° C | 46% | 1007.8 hPa | 0 mm | - | - | - |
| 1777844791 | 13.33° C | 46% | 1007.8 hPa | 0 mm | - | - | - |
| 1777844490 | 13.33° C | 46% | 1007.7 hPa | 0 mm | - | - | - |
| 1777844191 | 13.33° C | 47% | 1007.8 hPa | 0 mm | - | - | - |
| 1777843891 | 12.78° C | 49% | 1007.9 hPa | 0 mm | - | - | - |
| 1777843591 | 13.33° C | 50% | 1008 hPa | 0 mm | - | - | - |
| 1777843292 | 13.33° C | 48% | 1008.5 hPa | 0 mm | - | - | - |
| 1777842990 | 13.33° C | 46% | 1008.4 hPa | 0 mm | - | - | - |
| 1777842691 | 13.33° C | 45% | 1008.4 hPa | 0 mm | - | - | - |
* Rain latest hour (hover to see other rain measurements)
** Current wind speed in m/s (hover to see current wind gust speed)